When you browse on this site, cookies collect data to enhance your experience and personalize the content and advertising you see.
Visit our Privacy Policy to learn more. By continuing to use the site, you agree to this use of cookies and data.
  • In Spain
  • List of Countries
  • For 7 days
  • Water Temperature
  • Weather Map
  • Weather Widgets
  • user-avatar
    Login

    Hourly Weather Ostrava

    Today, 5 June, Friday

    Time Temperature Precipitation Wind Pressure Humidity
    00:00 +16°C° 0 mm 3 mps 727 mmHg 88%
    01:00 +14°C° 0 mm 3 mps 727 mmHg 88%
    02:00 +14°C° 0 mm 3 mps 727 mmHg 88%
    03:00 +14°C° 0 mm 3 mps 727 mmHg 89%
    04:00 +13°C° 0 mm 3 mps 727 mmHg 90%
    05:00 +14°C° 0 mm 3 mps 727 mmHg 88%
    06:00 +15°C° 0 mm 4 mps 727 mmHg 85%
    07:00 +17°C° 0 mm 4 mps 728 mmHg 83%
    08:00 +17°C° 0.5 mm 4 mps 728 mmHg 85%
    09:00 +15°C° 0.5 mm 4 mps 728 mmHg 87%
    10:00 +15°C° 0.5 mm 4 mps 729 mmHg 88%
    11:00 +16°C° 0.5 mm 3 mps 729 mmHg 89%
    12:00 +16°C° 0.5 mm 3 mps 729 mmHg 91%
    13:00 +14°C° 0.5 mm 3 mps 730 mmHg 92%
    14:00 +14°C° 0.2 mm 3 mps 730 mmHg 91%
    15:00 +15°C° 0.2 mm 2 mps 730 mmHg 91%
    16:00 +15°C° 0.2 mm 2 mps 730 mmHg 90%
    17:00 +15°C° 0 mm 2 mps 730 mmHg 90%
    18:00 +15°C° 0 mm 2 mps 731 mmHg 90%
    19:00 +15°C° 0 mm 2 mps 731 mmHg 89%
    20:00 +14°C° 0 mm 3 mps 731 mmHg 90%
    21:00 +13°C° 0 mm 3 mps 732 mmHg 91%
    22:00 +12°C° 0 mm 3 mps 733 mmHg 91%
    23:00 +12°C° 0 mm 3 mps 733 mmHg 91%

    Tomorrow, 6 June, Saturday

    Time Temperature Precipitation Wind Pressure Humidity
    00:00 +12°C° 0 mm 3 mps 733 mmHg 90%
    01:00 +11°C° 0 mm 4 mps 734 mmHg 90%
    02:00 +11°C° 0 mm 4 mps 734 mmHg 90%
    03:00 +11°C° 0 mm 4 mps 735 mmHg 90%
    04:00 +11°C° 0 mm 3 mps 735 mmHg 89%
    05:00 +12°C° 0 mm 4 mps 736 mmHg 86%
    06:00 +13°C° 0 mm 4 mps 736 mmHg 82%
    07:00 +15°C° 0 mm 4 mps 736 mmHg 78%
    08:00 +17°C° 0 mm 4 mps 737 mmHg 72%
    09:00 +19°C° 0 mm 5 mps 737 mmHg 67%
    10:00 +20°C° 0 mm 5 mps 737 mmHg 61%
    11:00 +21°C° 0 mm 5 mps 737 mmHg 58%
    12:00 +23°C° 0 mm 4 mps 737 mmHg 55%
    13:00 +25°C° 0 mm 4 mps 737 mmHg 52%
    14:00 +25°C° 0 mm 3 mps 736 mmHg 53%
    15:00 +25°C° 0 mm 2 mps 736 mmHg 55%
    16:00 +25°C° 0 mm 2 mps 736 mmHg 56%
    17:00 +23°C° 0.2 mm 1 mps 736 mmHg 63%
    18:00 +22°C° 0.2 mm 1 mps 736 mmHg 70%
    19:00 +21°C° 0.2 mm 1 mps 736 mmHg 76%
    20:00 +19°C° 0.1 mm 1 mps 736 mmHg 80%
    21:00 +18°C° 0.1 mm 1 mps 736 mmHg 83%
    22:00 +16°C° 0.1 mm 1 mps 736 mmHg 87%
    23:00 +16°C° 0 mm 1 mps 736 mmHg 88%

    Day after tomorrow, 7 June, Sunday

    Time Temperature Precipitation Wind Pressure Humidity
    00:00 +15°C° 0 mm 1 mps 736 mmHg 89%
    01:00 +15°C° 0 mm 1 mps 736 mmHg 91%
    02:00 +15°C° 0 mm 1 mps 736 mmHg 91%
    03:00 +14°C° 0 mm 1 mps 736 mmHg 91%
    04:00 +14°C° 0 mm 1 mps 736 mmHg 92%
    05:00 +15°C° 0 mm 0 mps 736 mmHg 88%
    06:00 +16°C° 0 mm 0 mps 736 mmHg 85%
    07:00 +18°C° 0 mm 0 mps 736 mmHg 81%
    08:00 +21°C° 0.8 mm 1 mps 736 mmHg 79%
    09:00 +22°C° 0.8 mm 1 mps 736 mmHg 78%
    10:00 +23°C° 0.8 mm 2 mps 737 mmHg 76%
    11:00 +21°C° 2.6 mm 2 mps 737 mmHg 82%
    12:00 +20°C° 2.6 mm 2 mps 736 mmHg 87%
    13:00 +19°C° 2.6 mm 3 mps 736 mmHg 93%
    14:00 +18°C° 3 mm 3 mps 736 mmHg 93%
    15:00 +18°C° 3 mm 3 mps 737 mmHg 93%
    16:00 +17°C° 3 mm 3 mps 737 mmHg 93%
    17:00 +17°C° 2.9 mm 2 mps 737 mmHg 94%
    18:00 +17°C° 2.9 mm 2 mps 737 mmHg 95%
    19:00 +18°C° 2.9 mm 1 mps 737 mmHg 95%
    20:00 +16°C° 0.7 mm 2 mps 738 mmHg 96%
    21:00 +16°C° 0.7 mm 2 mps 738 mmHg 96%
    22:00 +16°C° 0.7 mm 2 mps 738 mmHg 97%
    23:00 +16°C° 0.3 mm 2 mps 738 mmHg 97%

    8 June, Monday

    Time Temperature Precipitation Wind Pressure Humidity
    00:00 +16°C° 0.3 mm 3 mps 738 mmHg 96%
    01:00 +16°C° 0.3 mm 3 mps 738 mmHg 96%
    02:00 +14°C° 0.2 mm 3 mps 738 mmHg 96%
    03:00 +14°C° 0.2 mm 3 mps 738 mmHg 96%
    04:00 +14°C° 0.2 mm 3 mps 737 mmHg 96%
    05:00 +14°C° 0.6 mm 3 mps 737 mmHg 96%
    06:00 +14°C° 0.6 mm 3 mps 737 mmHg 96%
    07:00 +14°C° 0.6 mm 3 mps 738 mmHg 97%
    08:00 +14°C° 1 mm 3 mps 738 mmHg 96%
    09:00 +16°C° 1 mm 3 mps 738 mmHg 96%
    10:00 +16°C° 1 mm 2 mps 738 mmHg 95%
    11:00 +17°C° 0.2 mm 3 mps 738 mmHg 93%
    12:00 +18°C° 0.2 mm 3 mps 738 mmHg 91%
    13:00 +19°C° 0.2 mm 3 mps 737 mmHg 89%
    14:00 +19°C° 0.2 mm 3 mps 737 mmHg 88%
    15:00 +19°C° 0.2 mm 3 mps 737 mmHg 88%
    16:00 +19°C° 0.2 mm 3 mps 737 mmHg 88%
    17:00 +18°C° 0.1 mm 3 mps 737 mmHg 89%
    18:00 +18°C° 0.1 mm 3 mps 737 mmHg 91%
    19:00 +17°C° 0.1 mm 3 mps 737 mmHg 92%
    20:00 +17°C° 0.1 mm 3 mps 737 mmHg 93%
    21:00 +16°C° 0.1 mm 3 mps 738 mmHg 94%
    22:00 +16°C° 0.1 mm 3 mps 738 mmHg 95%
    23:00 +16°C° 0.1 mm 2 mps 738 mmHg 95%

    9 June, Tuesday

    Time Temperature Precipitation Wind Pressure Humidity
    00:00 +16°C° 0.1 mm 2 mps 738 mmHg 96%
    01:00 +15°C° 0.1 mm 2 mps 738 mmHg 96%
    02:00 +15°C° 0 mm 2 mps 738 mmHg 96%
    03:00 +15°C° 0 mm 2 mps 738 mmHg 97%
    04:00 +15°C° 0 mm 2 mps 738 mmHg 97%
    05:00 +15°C° 0 mm 2 mps 738 mmHg 96%
    06:00 +16°C° 0 mm 2 mps 739 mmHg 95%
    07:00 +16°C° 0 mm 2 mps 739 mmHg 94%
    08:00 +16°C° 0 mm 2 mps 739 mmHg 93%
    09:00 +17°C° 0 mm 2 mps 739 mmHg 91%
    10:00 +17°C° 0 mm 2 mps 739 mmHg 89%
    11:00 +18°C° 0 mm 2 mps 740 mmHg 85%
    12:00 +19°C° 0 mm 2 mps 740 mmHg 81%
    13:00 +20°C° 0 mm 2 mps 740 mmHg 77%
    14:00 +20°C° 0 mm 3 mps 740 mmHg 77%
    15:00 +20°C° 0 mm 3 mps 740 mmHg 77%
    16:00 +20°C° 0 mm 4 mps 740 mmHg 78%
    17:00 +19°C° 0 mm 3 mps 740 mmHg 81%
    18:00 +19°C° 0 mm 3 mps 740 mmHg 84%
    19:00 +18°C° 0 mm 3 mps 740 mmHg 87%
    20:00 +17°C° 0 mm 3 mps 740 mmHg 89%
    21:00 +17°C° 0 mm 3 mps 741 mmHg 91%
    22:00 +16°C° 0 mm 3 mps 741 mmHg 93%
    23:00 +16°C° 0 mm 3 mps 741 mmHg 93%

    10 June, Wednesday

    Time Temperature Precipitation Wind Pressure Humidity
    00:00 +14°C° 0 mm 3 mps 741 mmHg 94%
    01:00 +15°C° 0 mm 2 mps 741 mmHg 94%
    02:00 +14°C° 0 mm 3 mps 741 mmHg 94%
    03:00 +14°C° 0 mm 3 mps 741 mmHg 94%
    04:00 +14°C° 0 mm 3 mps 741 mmHg 94%
    05:00 +14°C° 0 mm 3 mps 741 mmHg 93%
    06:00 +14°C° 0 mm 3 mps 741 mmHg 93%
    07:00 +14°C° 0 mm 3 mps 742 mmHg 93%
    08:00 +16°C° 0 mm 3 mps 742 mmHg 91%
    09:00 +17°C° 0 mm 3 mps 742 mmHg 88%
    10:00 +17°C° 0 mm 3 mps 742 mmHg 86%
    11:00 +18°C° 0 mm 4 mps 742 mmHg 85%
    12:00 +19°C° 0 mm 4 mps 741 mmHg 83%
    13:00 +19°C° 0 mm 4 mps 741 mmHg 81%
    14:00 +19°C° 0.1 mm 4 mps 741 mmHg 82%
    15:00 +19°C° 0.1 mm 4 mps 741 mmHg 83%
    16:00 +19°C° 0.1 mm 4 mps 741 mmHg 84%
    17:00 +19°C° 0 mm 4 mps 741 mmHg 86%
    18:00 +18°C° 0 mm 3 mps 741 mmHg 88%
    19:00 +18°C° 0 mm 3 mps 741 mmHg 90%
    20:00 +18°C° 0 mm 3 mps 741 mmHg 90%
    21:00 +18°C° 0 mm 3 mps 741 mmHg 90%
    22:00 +18°C° 0 mm 2 mps 742 mmHg 90%
    23:00 +17°C° 0 mm 2 mps 741 mmHg 91%
    Show more